www.pogodaiklimat.ru

Погода и климат >> Архив погоды >> Украина >> Киев


АРХИВ ПОГОДЫ в Киеве

Время (UTC), дата Ветер
(напр.,м/с)
 
Видим.   Явления Облачность Т
(С)
Тd
(С)
f
(%)
Тe
(С)
Тes
(С)
Комфортность P
(гПа)
Po
(гПа)
Тmin
(С)
Tmax
(С)
R
(мм)
R24
(мм)
S
(см)
18 16.06 СВ 3 20 км 9/0
[Ac As Cs]
+23.9 +15.3 59 +27 +27 жарко 1013.0 993.8 +26.7
21 16.06 СВ 3 20 км 6/0
[Ci sp]
+21.8 +17.4 76 +26 +26 душно 1013.6 994.3
00 17.06 СВ 1 10 км 8/0
[Ci sp]
+19.5 +15.5 78 +22 +22 комфорт 1013.4 993.9
03 17.06 СВ 1 10 км 9/0
[Ac lent Cs]
+18.8 +15.2 80 +21 +21 комфорт 1012.9 993.4
06 17.06 СВ 2 20 км 9/6 600 м
[Cb cap Ac As]
+19.6 +15.9 79 +22 +24 комфорт 1013.1 993.7 +18.6
09 17.06 В 3 20 км 9/5 600 м
[Cb cap Ac trans]
+22.6 +16.6 69 +27 +31 душно 1013.5 994.3
12 17.06 В 1 20 км 10/8 600 м
[Cb cap Ac trans]
+23.5 +18.1 72 +28 +29 душно 1013.3 994.1
15 17.06 СВ 2 20 км 8/0
[Ci fib]
+26.5 +18.4 61 +31 +35 душно 1012.2 993.2
18 17.06 В 1 20 км 5/0
[Ac trans]
+24.9 +18.6 68 +30 +30 душно 1013.0 993.9 +27.4
21 17.06 штиль 0 20 км 4/0
[Ci fib]
+22.1 +18.5 80 +27 +27 душно 1013.7 994.4
00 18.06 ЮВ 1 20 км ясно +20.8 +17.6 82 +26 +26 душно 1014.0 994.6
03 18.06 штиль 0 10 км 4/0
[Ci fib]
+18.5 +16.9 90 +19 +20 тепло 1014.0 994.5
06 18.06 Ю 1 20 км 4/0
[Ac trans Ci fib]
+22.5 +16.5 69 +27 +35 душно 1014.5 995.2 +18.4
09 18.06 Ю 1 20 км 8/4 1000 м
[Cu hum Ci fib]
+26.5 +14.8 49 +29 +39 жарко 1014.5 995.5
12 18.06 СВ 3 20 км 6/3 1000 м
[Cu med, cong Ci fib]
+27.6 +13.3 41 +29 +37 жарко 1014.1 995.1
15 18.06 Ю 3 20 км 1/1 1000 м
[Cu hum]
+27.9 +14.5 44 +30 +34 жарко 1013.4 994.5
18 18.06 ЮЗ 2 20 км 3/0
[Ci fib]
+23.0 +14.8 60 +27 +27 душно 1014.8 995.5 +28.7
21 18.06 З 2 20 км ясно +20.9 +14.0 65 +24 +24 комфорт 1015.9 996.5
00 19.06 СЗ 1 20 км ясно +19.4 +14.0 71 +22 +22 комфорт 1016.1 996.6
03 19.06 СЗ 1 20 км 8/0
[Ac trans]
+20.7 +14.2 66 +24 +25 комфорт 1016.4 997.0
06 19.06 СЗ 1 20 км ясно +25.0 +15.6 56 +28 +38 жарко 1016.8 997.6 +19.4
09 19.06 З 3 20 км 6/6 1000 м
[Cu med, cong]
+27.5 +14.6 45 +30 +35 жарко 1016.4 997.4
12 19.06 З 3 20 км гроза без осадков {ливн. осадки} 9/8 1000 м
[Cb cap Ac cuf Ci ing]
+22.4 +15.4 65 +26 +28 жарко 1016.5 997.2
15 19.06 ЮЗ 2 20 км {гроза} 6/4 1000 м
[Cb calv Ac cuf]
+25.9 +18.2 63 +31 +33 очень
душно
1015.1 996.0
18 19.06 З 1 20 км {гроза} 1/0
[Ac cuf]
+24.5 +16.6 61 +28 +28 душно 1015.2 996.0 +29.1 0.0
21 19.06 СЗ 2 20 км 3/0
[Ci fib]
+23.5 +15.9 62 +27 +27 душно 1015.8 996.6
00 20.06 СЗ 1 20 км 4/0
[Ac trans]
+22.0 +16.1 69 +26 +26 душно 1016.3 997.0
03 20.06 С 3 20 км 6/0
[Ac trans Ci fib]
+21.4 +14.4 64 +24 +25 комфорт 1017.6 998.2
06 20.06 С 2 20 км 3/0
[Ci fib]
+23.2 +13.6 55 +27 +34 душно 1018.3 999.0 +21.4
09 20.06 С 4 20 км 4/4 1000 м
[Cu med, cong]
+26.4 +12.0 41 +28 +35 жарко 1018.0 998.9
12 20.06 С 4 20 км 8/8 1000 м
[Cu Sc]
+26.7 +11.8 39 +28 +30 жарко 1017.7 998.6
15 20.06 С 3 20 км 3/3 1000 м
[Cu med, cong]
+26.8 +11.9 40 +28 +31 жарко 1016.9 997.8
18 20.06 СЗ 2 20 км ясно +24.8 +10.5 41 +26 +26 жарко 1016.7 997.5 +27.8
21 20.06 СЗ 2 20 км ясно +21.6 +10.7 50 +23 +23 комфорт 1017.5 998.1
00 21.06 СЗ 2 20 км ясно +19.8 +12.1 61 +22 +22 комфорт 1017.9 998.4
03 21.06 СЗ 2 20 км ясно +18.4 +12.5 68 +19 +20 тепло 1018.3 998.7
06 21.06 СВ 1 20 км ясно +24.4 +12.4 47 +26 +36 жарко 1017.5 998.3 +18.3
09 21.06 СЗ 2 20 км ясно +27.4 +10.4 35 +28 +45 жарко 1016.0 997.0
12 21.06 ЮЗ 3 20 км 3/1 1000 м
[Cu hum Ci sp]
+28.7 +11.6 35 +30 +40 жарко 1014.1 995.2
15 21.06 ЮЗ 3 20 км 4/0
[Cs]
+28.5 +13.0 38 +30 +33 жарко 1012.4 993.5
18 21.06 ЮЗ 2 20 км 8/0
[Cs]
+25.4 +13.3 47 +27 +27 жарко 1011.7 992.6 +29.7
21 21.06 ЮЗ 2 20 км 3/0
[Cs]
+22.6 +14.1 59 +26 +26 жарко 1011.4 992.2
00 22.06 Ю 2 20 км ясно +19.2 +15.0 77 +21 +21 комфорт 1010.6 991.2
03 22.06 Ю 2 20 км 5/0
[Ac lent Cs]
+19.1 +15.2 78 +21 +21 комфорт 1009.7 990.3
06 22.06 ЮЗ 3 20 км 4/0
[Cs]
+24.9 +15.4 56 +28 +34 жарко 1008.8 989.8 +17.7
09 22.06 З 4 20 км 5/4 1000 м
[Cu med, cong Ci fib]
+29.0 +16.2 46 +32 +39 душно 1007.9 989.2
12 22.06 СЗ 4 20 км 8/8 600 м
[Cb calv]
+29.3 +16.4 46 +33 +35 душно 1007.0 988.3
15 22.06 С 4 20 км слабый ливневой дождь, в посл. час гроза 10/4 600 м
[Cb cap Ac und]
+18.1 +15.0 82 +18 +19 прохладно 1010.0 990.5
18 22.06 С 2 10 км слабый ливневой дождь, в посл. час гроза 8/5 600 м
[Cb cap Ac trans]
+16.3 +14.4 89 +16 +16 прохладно 1011.4 991.8 +30.7 5
21 22.06 СВ 4 20 км 5/5 600 м
[Cu hum]
+16.0 +13.5 85 +15 +15 прохладно 1011.3 991.6
00 23.06 СВ 4 20 км 8/0
[Cc]
+15.4 +12.5 83 +14 +14 по сезону 1010.0 990.3
03 23.06 СВ 3 20 км 10/0
[As op]
+15.0 +12.7 86 +14 +14 прохладно 1009.0 989.3
06 23.06 С 2 4000 м слабая морось 10/10 330 м
[St]
+14.2 +13.5 96 +14 +14 прохладно 1009.0 989.3 +14.2 0.0
09 23.06 С 3 10 км слабая морось 10/10 300 м
[Frnb]
+13.9 +12.6 92 +13 +13 очень
холодно
1008.6 988.8
12 23.06 С 3 10 км слабая морось 10/10 300 м
[St]
+13.9 +12.8 93 +13 +13 очень
холодно
1008.5 988.7
15 23.06 С 4 10 км слабая морось 10/10 330 м
[St]
+12.7 +11.8 94 +11 +11 очень
холодно
1008.5 988.7

 

Местоположение метеостанции Киев (город Киев, Украина): широта 50.40 долгота 30.57 высота над уровнем моря 167 м.

В архиве по умолчанию представлена погода в Киеве за последнюю неделю. Архивные данные за месяц целиком и за предыдущие месяцы, начиная с января 2011 года, Вы можете получить, выбрав интересующий диапазон дат из раскрывающегося списка и нажав кнопку "Ввод!".


*Определитесь, кто Вы:
робот инопланетянин человек

Внимание! Время в таблицах - всемирное. Для получения местного времени необходимо прибавить поправку, которая в Киеве равна 2 ч.

Смотрите также архив погоды в соседних городах и на ближайших метеорологических станциях:

Погода в Вышгороде (Киевская область, Украина) (21 км)
Погода в Борисполе (Киевская область, Украина) (29 км)
Погода в Барышевке (Киевская область, Украина) (54 км)
Погода в Фастове (Киевская область, Украина) (58 км)
Погода в Остере (Черниговская область, Украина) (65 км)
Погода в Тетереве (Киевская область, Украина) (78 км)
Погода в Белой Церкви (Киевская область, Украина) (79 км)
Погода в Мироновке (Киевская область, Украина) (87 км)
Погода в Яготине (Киевская область, Украина) (90 км)
Погода в Чернобыле (Киевская область, Украина) (101 км)

Пояснения к столбцам:

Ветер - указаны скорость ветра в м/с - средняя за 10 мин, порывы в срок и между сроками (в фигурных скобках) и направление, откуда дует ветер: С - северный, СВ - северо-восточный, В - восточный, ЮВ - юго-восточный, Ю - южный, ЮЗ - юго-западный, З - западный, СЗ - северо-западный.
Видимость - горизонтальная дальность видимости в метрах или километрах. При видимости от 1 до 10 км при отсутствии осадков обычно наблюдается дымка, при ухудшении видимости до 1 км и менее - туман. В сухую погоду видимость может ухудшаться дымом, пылью или мглою.
Явления - указаны атмосферные явления, наблюдавшиеся в срок или в последний час перед сроком; фигурными скобками обозначены явления, наблюдавшиеся между сроками (за 1-3 часа до срока); квадратными скобками обозначены град или гололедные отложения с указанием их диаметра в мм.
Облачность - указаны через наклонную черту общая и нижняя облачность в баллах и высота нижней границы облаков в метрах; квадратными скобками обозначены формы облаков: Ci - перистые, Cs - перисто-слоистые, Cc - перисто-кучевые, Ac - высококучевые, As - высокослоистые, Sc - слоисто-кучевые, Ns - слоисто-дождевые, Cu - кучевые, Cb - кучево-дождевые. Подробнее классификацию облаков см. в Атласе облаков (PDF).
T - Температура воздуха - температура, измеренная на высоте 2 м над землей.
Td - Температура точки росы - температура, при понижении до которой содержащийся в воздухе водяной пар достигнет насыщения.
f - Относительная влажность воздуха - влажноcть воздуха, измеренная на высоте 2 м над землей.
Te - Эффективная температура - температура, которую ощущает одетый по сезону человек в тени. Характеристика душности погоды. При расчете учитывается влияние влажности воздуха и скорости ветра на теплоощущения человека.
Tes - Эффективная температура на солнце - температура, которую ощущает человек, с поправкой на солнечный нагрев. Характеристика знойности погоды. Зависит от высоты солнца над горизонтом, облачности и скорости ветра. Ночью, в пасмурную погоду, а также при ветре 12 м/с и более поправка равна нулю.
P - Атмосферное давление - приведенное к уровню моря атмосферное давление.
Po - Атмосферное давление - измеренное на уровне метеостанции атмосферное давление.
Tmin - Минимальная температура - минимум температуры воздуха на высоте 2 м над землей.
Tmax - Максимальная температура - максимум температуры воздуха на высоте 2 м над землей.
R - Количество осадков - Количество выпавших осадков за период времени, мм. При наведении курсора мыши на число - период времени, за который выпало указанное количество осадков.
R24 - Количество осадков - Количество выпавших осадков за 24 часа, мм.
S - Снежный покров - Высота снежного покрова, см. При наведении курсора мыши на число - состояние снежного покрова и степень покрытия местности в баллах.